Regional Weather Roundup
Issued by NWS

Home | Current Version | Previous Version | Text Only | Print | Product List | Glossary On
Versions: 1 2 3 4 5 6 7 8 9 10 11 12 13 14 15 16 17 18 19 20 21 22 23 24 25 26 27 28 29 30 31 32 33 34 35 36 37 38 39 40 41 42 43 44 45 46 47 48 49 50
000
ASUS43 KMPX 271310
RWRMN
WEATHER ROUNDUP FOR MINNESOTA
NATIONAL WEATHER SERVICE TWIN CITIES/CHANHASSEN MN
700 AM CST MON FEB 27 2017


NOTE: "FAIR" INDICATES FEW OR NO CLOUDS BELOW 12,000 FEET WITH NO
SIGNIFICANT WEATHER AND/OR OBSTRUCTIONS TO VISIBILITY. N/A MEANS
CURRENT SKY AND/OR WEATHER CONDITIONS ARE NOT AVAILABLE.

MNZ060>063-068>070-271400-
   Twin Cities Metro

CITY           SKY/WX    TMP DP  RH WIND       PRES   REMARKS
TWIN CITIES    PTCLDY    24  18  77 SE7       29.96R WCI  16
ST PAUL        CLEAR     23  20  88 SE9       29.98R WCI  13
CRYSTAL        CLEAR     23  17  78 S7        29.93S WCI  15
BLAINE         PTCLDY    23  21  93 S6        29.94R WCI  16
LAKEVILLE      MOCLDY    23  19  86 S5        29.96R WCI  17
EDEN PRAIRIE   CLEAR     24  18  77 S8        29.94R WCI  15
SOUTH ST PAUL  CLEAR     24  19  83 SE3       29.97R
LAKE ELMO      FAIR      23  21  93 S7        29.97R WCI  15
$$
MNZ001>005-007-008-013>017-022>024-027-028-271400-
   Northwest Minnesota

CITY           SKY/WX    TMP DP  RH WIND       PRES   REMARKS
BEMIDJI        CLOUDY     2  -1  85 CALM      29.89S
HALLOCK        CLOUDY    12   9  85 S9        29.87S WCI   0
ROSEAU         CLOUDY    10   5  79 S9        29.87F WCI  -2
WARROAD        CLOUDY    10   7  85 SW6       29.87S WCI   1
THIEF RVR FALL CLOUDY     9   6  88 S6        29.90S WCI  -1
CROOKSTON      CLOUDY    14  12  92 S5        29.91F WCI   6
FOSSTON        CLOUDY    10   7  85 SE3       29.89F
DETROIT LAKES  PTCLDY    19  14  79 SE3       29.89S
MOORHEAD       CLOUDY    18  12  79 CALM      29.91S
PARK RAPIDS    CLOUDY    18   9  68 E3        29.88S
MAHNOMEN       FAIR      14  11  85 E3        29.89S
$$
MNZ006-009>011-018-025>026-271400-
   North Central Minnesota

CITY           SKY/WX    TMP DP  RH WIND       PRES   REMARKS
BAUDETTE       CLOUDY     5   1  83 SW5       29.87S WCI  -4
FLAG ISLAND    CLOUDY     7   3  85 S6        29.85S WCI  -3
INTL FALLS     CLEAR      1  -3  83 CALM      29.91R
WASKISH        CLOUDY     5   3  92 CALM      29.90R
BIG FORK       CLOUDY    -6  -9  84 CALM      29.91R
LONGVILLE      CLOUDY    16  10  79 CALM      29.91S
GRAND RAPIDS   CLOUDY    12   6  77 CALM      29.93R
CRANE LAKE     CLOUDY    -8  -9  92 CALM      29.95S
ORR            CLOUDY     0  -6  78 CALM      29.89S
COOK           CLOUDY    -6  -9  84 CALM      29.92S
WALKER         CLOUDY    14   9  81 CALM      29.90S
$$
MNZ012-019>021-037-271400-
   Northeast Minnesota

CITY           SKY/WX    TMP DP  RH WIND       PRES   REMARKS
DULUTH         CLOUDY    18   9  68 CALM      29.92R
ELY            CLOUDY    -6  -9  84 CALM      29.92S
HIBBING        CLOUDY     5   1  83 CALM      29.91F
EVELETH        CLOUDY     6   0  75 CALM      29.93S
DULUTH HARBOR  CLOUDY    19  12  73 CALM      29.98S
TWO HARBORS    CLOUDY    16   9  73 CALM      29.92F
SILVER BAY     CLOUDY    12   7  79 CALM      29.94S
GRAND MARAIS     N/A     18   1  47 CALM      30.00S
G MARAIS ARPRT CLOUDY    -2  -9  71 CALM      29.90F
$$
MNZ029>031-032-039>041-046>048-054>057-064-271400-
   West Central Minnesota

CITY           SKY/WX    TMP DP  RH WIND       PRES   REMARKS
FERGUS FALLS   MOCLDY    16  12  86 W5        29.94R WCI   9
WHEATON        CLEAR     16  14  93 CALM      29.91S
MORRIS         CLEAR     18  16  93 E6        29.87S WCI   9
ALEXANDRIA     CLEAR     18  16  92 E7        29.88S WCI   9
ELBOW LAKE     FAIR      18  15  90 NE7       29.88S WCI   8
WADENA         CLOUDY    16  10  79 CALM      29.88S
GLENWOOD       CLEAR     16  14  93 NE6       29.88S WCI   7
APPLETON       CLEAR     19  19 100 CALM      29.88S FOG
BENSON         CLEAR     21  16  79 E3        29.89S
ORTONVILLE     PTCLDY    18  16  93 CALM      29.88R
MADISON        CLEAR     23  23 100 NW3       29.89R
WILLMAR        FAIR      25  23  93 CALM      29.89F
$$
MNZ033>034-036-042>043-049>051-058-059-271400-
   Central Minnesota

CITY           SKY/WX    TMP DP  RH WIND       PRES   REMARKS
ST CLOUD       PTCLDY    21  18  88 E6        29.91R WCI  13
SAUK CENTRE    FAIR      17  15  93 CALM      29.90R
PAYNESVILLE    CLEAR     20  19  97 NE3       29.89S
AITKIN         CLOUDY    19  10  68 CALM      29.90F
PINE RIVER     CLOUDY    16  10  79 CALM      29.94S
BRAINERD       CLOUDY    18  11  74 CALM      29.91S
STAPLES        CLOUDY    16  10  79 CALM      29.90S
LONG PRAIRIE   FAIR      19  18  93 N3        29.90R
LITTLE FALLS   CLEAR     21  18  86 CALM      29.91S
LITCHFIELD     CLEAR     21  21 100 CALM      29.90S
BUFFALO        CLEAR     24  21  90 CALM      29.93S
MAPLE LAKE     CLEAR     20  19  96 CALM      29.92S FOG
HUTCHINSON     CLOUDY    24  23  93 SE3       29.92R
$$
MNZ037-044-045-052-053-271400-
   East Central Minnesota

CITY           SKY/WX    TMP DP  RH WIND       PRES   REMARKS
PRINCETON      CLEAR     21  19  93 CALM      29.92S
MORA           CLOUDY    21  19  93 CALM      29.94S
CAMBRIDGE      CLEAR     23  16  74 CALM      29.92S
RUSH CITY      CLOUDY    21  19  93 E3        29.95S
MOOSE LAKE     CLOUDY    19  12  73 CALM      29.91F
HINCKLEY       CLOUDY    23  19  86 E3        29.94S
CLOQUET        CLOUDY    16   9  73 CALM      29.92S
MCGREGOR       CLOUDY    19  12  73 CALM      29.92S
$$
MNZ071>073-080-081-089-090-097-098-271400-
   Southwest Minnesota

CITY           SKY/WX    TMP DP  RH WIND       PRES   REMARKS
MONTEVIDEO     CLEAR     23  19  86 CALM      29.90R
GRANITE FALLS  CLEAR     25  21  86 S6        29.90S WCI  18
CANBY          CLEAR     27  21  78 CALM      29.88R
MARSHALL       CLEAR     26  20  77 SW13      29.88R WCI  15
REDWOOD FALLS  CLEAR     23  18  81 S5        29.91R WCI  17
OLIVIA         CLEAR     23  19  86 S6        29.89S WCI  16
PIPESTONE      CLEAR     23  18  80 S6        29.88S WCI  16
WINDOM         PTCLDY    27  21  80 S8        29.92S WCI  18
WORTHINGTON    CLEAR     24  20  84 S14       29.91F WCI  12
JACKSON        CLEAR     25  19  80 S9        29.94R WCI  15
TRACY          CLEAR     28  23  81 SW15      29.89R WCI  17
SLAYTON        CLEAR     25  21  85 S12       29.89F WCI  14
$$
MNZ065>067-074>077-082>085-091>093-271400-
   South Central Minnesota

CITY           SKY/WX    TMP DP  RH WIND       PRES   REMARKS
MANKATO          N/A     20  17  88 S8        29.96S WCI  10
NEW ULM        CLEAR     25  19  80 S8        29.93R WCI  16
ST JAMES       PTCLDY    25  19  80 S14       29.95R WCI  13
FAIRMONT       CLEAR     18  13  80 S10       29.96S WCI   6
GLENCOE        CLEAR     25  24  93 S6        29.92S WCI  18
FARIBAULT      CLEAR     18  14  86 S5        29.98R WCI  11
OWATONNA       CLEAR     21  16  79 S14       29.96S WCI   8
WASECA         CLEAR     19  14  79 S9        29.98S WCI   9
ALBERT LEA     CLOUDY    18  18 100 S3        29.98R
$$
MNZ078>079-086>088-094>096-271400-
   Southeast Minnesota

CITY           SKY/WX    TMP DP  RH WIND       PRES   REMARKS
ROCHESTER      CLEAR     12  11  95 S10       29.98S WCI  -1
RED WING       CLEAR     21  16  79 S5        29.99R WCI  15
STANTON        CLEAR     22  16  80 S9        29.96R WCI  11
WINONA         CLEAR     14  14 100 CALM      30.04F
AUSTIN         CLEAR     16  14  93 CALM      29.99R
PRESTON        CLEAR     19  17  93 S8        30.01S WCI   9
$$
ABBREVIATIONS USED IN REMARKS
   TC - TEMPERATURES IN CELSIUS
  WCI - WIND CHILL INDEX
   HX - HEAT INDEX
  VSB - VISIBILITY
$$




USA.gov is the U.S. government's official web portal to all federal, state and local government web resources and services.